Location: Cottbus
(51.7000°N, 14.3000°E)
Time: 00:20:46
(UTC+01:00)

ISS - Pass Details

Date: 28 January 2019
Orbit: 403 x 411 km, 51.6° (Epoch: 17 February)

Event Time Altitude Azimuth Distance (km) Brightness Sun altitude
Rises 17:30:50 0° 229° (SW) 2,325 1.5 -7.5°
Reaches altitude 10° 17:33:00 10° 220° (SW) 1,469 0.1 -7.8°
Maximum altitude 17:36:03 35° 153° (SSE) 681 -2.8 -8.2°
Enters shadow 17:38:54 11° 87° (E) 1,403 -1.7 -8.6°
